Flag for U.S.A. Weather past 2 weeks in Fort Bragg, California, U.S.A.

Now
81 °F

Sunny.


Feels Like: 81 °F
Forecast: 57 / 67 °F
Wind: 6 mph from North

Location: Ukiah Municipal

Current Time: Sep 20, 2014 at 7:45:11 PM

Latest Report: Sep 20, 2014 at 6:56 PM


Visibility: 10 mi

Pressure: 29.82 "Hg

Humidity: 44%

Dew point: 57 °F

Location of Fort BraggLocation

Historic Weather in Fort Bragg — Graph

°F

Fort Bragg temperature yesterday

Maximum temperature yesterday: 91 °F (at 2:56 PM)
Minimum temperature yesterday: 63 °F (at 12:56 AM)
Average temperature yesterday: 72 °F

Past Weeks' High & Low Weather Summary

 TemperatureHumidityPressure
High101 °F (Sep 11, 3:56 PM)97% (Sep 6, 6:56 AM)29.98 "Hg (Sep 6, 6:56 AM)
Low48 °F (Sep 7, 6:56 AM)5% (Sep 6, 3:56 PM)29.67 "Hg (Sep 17, 4:56 PM)
Average71 °F49%29.83 "Hg
* Reported Sep 5 6:56 PM — Sep 20 6:56 PM, Fort Bragg, Weather by CustomWeather, © 2014

Note: Actual official high and low records may vary slightly from our data, if they occured in-between our weather recording intervals... More about our weather records

Advertising

Fort Bragg weather history for previous 24 hours

 ConditionsComfort  
Time TempWeatherWind HumidityBarometerVisibility
6:56 PM
Sep 20
81 °FSunny.6 mph44%29.82 "Hg10 mi
5:56 PM88 °FSunny.No wind35%29.82 "Hg10 mi
4:56 PM88 °FSunny.10 mph36%29.82 "Hg10 mi
3:56 PM89 °FSunny.9 mph34%29.82 "Hg10 mi
2:56 PM88 °FSunny.12 mph34%29.83 "Hg10 mi
1:56 PM86 °FSunny.9 mph35%29.85 "Hg10 mi
12:56 PM81 °FSunny.9 mph39%29.87 "Hg10 mi
11:56 AM75 °FSunny.3 mph54%29.90 "Hg10 mi
10:56 AM68 °FSunny.No wind68%29.91 "Hg10 mi
6:03 AM55 °FPassing clouds.No wind93%29.90 "Hg9 mi
5:56 AM56 °FFog.No wind97%29.87 "Hg2 mi
4:56 AM57 °FClear.3 mph83%29.86 "Hg10 mi
3:56 AM59 °FClear.No wind78%29.86 "Hg10 mi
2:56 AM62 °FClear.No wind73%29.86 "Hg10 mi
1:56 AM60 °FClear.No wind80%29.86 "Hg10 mi
12:56 AM65 °FClear.No wind66%29.85 "Hg10 mi
11:56 PM
Sep 19
65 °FClear.No wind63%29.85 "Hg10 mi
10:56 PM67 °FClear.No wind59%29.86 "Hg10 mi
9:56 PM68 °FClear.No wind59%29.85 "Hg10 mi
8:56 PM73 °FClear.No wind46%29.83 "Hg10 mi
7:56 PM77 °FSunny.No wind40%29.82 "Hg10 mi
Weather by CustomWeather, © 2014

See weather overviewHow to use our weather pages